This demonstration page uses our WeatherBlox Daily Observations layout. Learn more.

40.92945, -100.16068

Hourly Observations for March 13, 2020

Temp ( °F °C ) Dew Point ( °F °C ) Humidity (%) Winds ( mph kmh ) Pressure ( in mb ) Visibility ( mi km ) Precip ( " mm )
12:15 am 00:15 Clear 28 -2 23 -5.1 80 80 Calm 30.3 1026 10 16.0934 0 0
12:35 am 00:35 Clear 29 -1.7 23 -4.8 80 80 Calm 30.29 1026 10 16.0934 0 0
12:55 am 00:55 Clear 28 -2.4 23 -5.1 82 82 NNW 5 7 30.3 1026 10 16.0934 0 0
1:15 am 01:15 Partly Cloudy 26 -3.5 22 -5.5 86 86 N 8 13 30.31 1027 10 16.0934 0 0
1:35 am 01:35 Cloudy 28 -2.5 23 -4.9 84 84 N 8 13 30.29 1026 10 16.0934 0 0
1:55 am 01:55 Cloudy 29 -1.7 23 -4.9 79 79 N 7 11 30.28 1026 10 16.0934 0 0
2:15 am 02:15 Cloudy 29 -1.6 24 -4.6 80 80 W 3 6 30.29 1026 10 16.0934 0 0
2:35 am 02:35 Cloudy 30 -1.1 24 -4.3 79 79 Calm 30.29 1026 10 16.0934 0 0
2:55 am 02:55 Cloudy 31 -0.7 26 -3.3 83 83 NNW 3 6 30.28 1026 10 16.0934 0 0
3:15 am 03:15 Cloudy 31 -0.5 26 -3.1 83 83 W 3 6 30.3 1026 10 16.0934 0 0
3:35 am 03:35 Cloudy 31 -0.3 26 -3.1 82 82 N 5 7 30.29 1026 10 16.0934 0 0
3:55 am 03:55 Cloudy 32 -0.2 26 -3.1 81 81 Calm 30.31 1026 10 16.0934 0 0
4:15 am 04:15 Cloudy 32 0 27 -3 80 80 Calm 30.32 1027 10 16.0934 0 0
4:35 am 04:35 Cloudy 32 0 27 -2.6 83 83 Calm 30.32 1027 10 16.0934 0 0
4:55 am 04:55 Cloudy 32 0.1 26 -3.1 79 79 Calm 30.32 1027 10 16.0934 0 0
5:15 am 05:15 Cloudy 32 0 27 -2.8 82 82 Calm 30.32 1027 10 16.0934 0 0
5:35 am 05:35 Cloudy 32 0 27 -2.6 83 83 ENE 3 6 30.31 1026 10 16.0934 0 0
5:55 am 05:55 Cloudy 32 0.1 27 -2.7 82 82 Calm 30.32 1027 10 16.0934 0 0
6:15 am 06:15 Cloudy 32 0.2 26 -3.6 76 76 Calm 30.32 1027 10 16.0934 0 0
6:35 am 06:35 Cloudy 33 0.5 25 -4.1 72 72 Calm 30.33 1027 10 16.0934 0 0
6:55 am 06:55 Cloudy 33 0.8 24 -4.4 69 69 Calm 30.33 1027 10 16.0934 0 0
7:15 am 07:15 Cloudy 33 0.7 25 -4 71 71 Calm 30.34 1027 10 16.0934 0 0
7:35 am 07:35 Cloudy 34 1 24 -4.4 68 68 ESE 6 9 30.34 1027 10 16.0934 0 0
7:55 am 07:55 Cloudy 34 1 24 -4.6 67 67 ESE 5 7 30.35 1028 10 16.0934 0 0
8:15 am 08:15 Cloudy 34 1 24 -4.2 69 69 Calm 30.36 1028 10 16.0934 0 0
8:35 am 08:35 Cloudy 34 1 24 -4.3 68 68 ESE 6 9 30.36 1028 10 16.0934 0 0
8:55 am 08:55 Cloudy 34 1 24 -4.2 69 69 ESE 5 7 30.36 1028 10 16.0934 0 0
9:15 am 09:15 Cloudy 34 1.2 25 -4 69 69 ESE 3 6 30.37 1028 10 16.0934 0 0
9:35 am 09:35 Cloudy 35 1.5 25 -3.8 68 68 ESE 7 11 30.37 1029 10 16.0934 0 0
9:55 am 09:55 Cloudy 35 1.7 25 -3.7 68 68 SE 9 15 30.39 1029 10 16.0934 0 0
10:15 am 10:15 Cloudy 36 2.1 26 -3.6 66 66 SSE 10 17 30.39 1029 10 16.0934 0 0
10:35 am 10:35 Cloudy 36 2.4 27 -2.7 69 69 SSE 9 15 30.38 1029 10 16.0934 0 0
10:55 am 10:55 Cloudy 37 3 27 -3 65 65 SSE 12 19 30.38 1029 10 16.0934 0 0
11:15 am 11:15 Cloudy 37 3 27 -3 65 65 S 16 26 30.38 1029 10 16.0934 0 0
11:35 am 11:35 Cloudy 38 3.1 26 -3.1 64 64 SSE 13 20 30.38 1029 10 16.0934 0 0
11:55 am 11:55 Cloudy 38 3.6 26 -3.4 61 61 S 17 28 30.37 1029 10 16.0934 0 0
12:15 pm 12:15 Cloudy 38 3.5 26 -3.2 62 62 SSE 15 24 30.37 1029 10 16.0934 0 0
12:35 pm 12:35 Cloudy 36 2.1 30 -1.2 79 79 SSE 17 28 30.4 1029 10 16.0934 0 0
12:55 pm 12:55 Cloudy 36 2.1 31 -0.5 83 83 SSE 16 26 30.41 1030 10 16.0934 0 0
1:15 pm 13:15 Cloudy with Light Snow 36 2 31 -0.6 83 83 SSE 16 26 30.4 1029 7 11.26538 0 0
1:35 pm 13:35 Cloudy 36 2.2 32 -0.1 85 85 SSE 14 22 30.4 1029 7 11.26538 0 0
1:55 pm 13:55 Cloudy with Light Snow 36 2.1 31 -0.4 84 84 SSE 14 22 30.39 1029 5 8.0467 0 0
2:15 pm 14:15 Cloudy with Light Snow 36 2.1 32 0.1 87 87 SSE 13 20 30.39 1029 2 3.21868 0 0
2:35 pm 14:35 Cloudy with Light Snow 35 1.7 33 0.6 93 93 SE 10 17 30.38 1029 3 4.82802 0 0
2:55 pm 14:55 Cloudy with Light Snow 34 1 33 0.3 95 95 SE 10 17 30.38 1029 1.25 2.011675 0 0
3:15 pm 15:15 Cloudy with Light Snow 33 0.8 32 0.2 96 96 SE 9 15 30.38 1029 1.75 2.816345 0 0
3:35 pm 15:35 Cloudy with Light Snow 33 0.5 32 0.2 98 98 SE 8 13 30.39 1029 0.5 0.80467 0 0
3:55 pm 15:55 Cloudy with Snow 33 0.5 32 0.2 98 98 SE 9 15 30.4 1030 0.25 0.402335 0 0
4:15 pm 16:15 Cloudy with Light Snow 33 0.3 32 0.2 99 99 ESE 9 15 30.36 1028 0.5 0.80467 0.01 0.254
4:35 pm 16:35 Cloudy with Light Snow 33 0.3 32 0.1 99 99 ESE 9 15 30.36 1028 0.75 1.207005 0.02 0.508
4:55 pm 16:55 Cloudy with Snow 33 0.3 32 0.1 99 99 ESE 10 17 30.36 1028 0.25 0.402335 0.03 0.762
5:15 pm 17:15 Cloudy with Light Snow 33 0.3 32 0.1 99 99 ESE 9 15 30.36 1028 0.25 0.402335 0.01 0.254
5:35 pm 17:35 Cloudy with Light Snow 33 0.5 32 0 96 96 ESE 12 19 30.35 1028 2 3.21868 0.02 0.508
5:55 pm 17:55 Cloudy with Light Snow 33 0.3 32 0 98 98 ESE 15 24 30.34 1028 1.5 2.41401 0.02 0.508
6:15 pm 18:15 Cloudy with Light Snow 32 0.2 32 0 99 99 ESE 14 22 30.34 1027 1 1.60934 0 0
6:35 pm 18:35 Cloudy with Light Snow 33 0.3 32 0 98 98 ESE 16 26 30.34 1028 1.5 2.41401 0 0
6:55 pm 18:55 Cloudy with Light Snow 32 0 32 -0.1 99 99 ESE 16 26 30.35 1028 1 1.60934 0 0
7:15 pm 19:15 Cloudy with Light Snow 32 0 32 0 100 100 ESE 14 22 30.35 1028 1.25 2.011675 0 0
7:35 pm 19:35 Cloudy with Light Snow 32 0 31 -0.5 96 96 ESE 15 24 30.35 1028 1.5 2.41401 0 0
7:55 pm 19:55 Cloudy with Light Snow 32 -0.1 31 -0.5 97 97 ESE 13 20 30.34 1027 1 1.60934 0 0
8:15 pm 20:15 Cloudy with Snow 32 -0.1 31 -0.4 98 98 ESE 16 26 30.35 1028 0.5 0.80467 0 0
8:35 pm 20:35 Cloudy with Light Snow 32 -0.1 31 -0.5 97 97 ESE 16 26 30.35 1028 1.25 2.011675 0 0
8:55 pm 20:55 Cloudy with Light Snow 32 -0.2 31 -0.6 97 97 ESE 17 28 30.35 1028 1.75 2.816345 0 0
9:15 pm 21:15 Cloudy with Light Snow 32 -0.2 31 -0.5 98 98 ESE 17 28 30.35 1028 1.5 2.41401 0 0
9:35 pm 21:35 Cloudy with Light Snow 32 -0.2 31 -0.6 97 97 ESE 16 26 30.35 1028 1.75 2.816345 0 0
9:55 pm 21:55 Cloudy with Light Snow 31 -0.3 31 -0.6 98 98 ESE 14 22 30.35 1028 1.5 2.41401 0 0
10:15 pm 22:15 Cloudy with Light Snow 32 -0.2 31 -0.5 98 98 ESE 14 22 30.37 1028 0.75 1.207005 0 0
10:35 pm 22:35 Cloudy with Light Snow 31 -0.3 31 -0.7 97 97 ESE 16 26 30.36 1028 1.5 2.41401 0.01 0.254
10:55 pm 22:55 Cloudy with Light Snow 31 -0.5 31 -0.6 99 99 ESE 14 22 30.37 1029 1.25 2.011675 0.01 0.254
11:15 pm 23:15 Cloudy with Light Snow 31 -0.5 31 -0.7 99 99 ESE 14 22 30.37 1029 1.75 2.816345 0 0
11:35 pm 23:35 Cloudy with Light Snow 31 -0.5 31 -0.8 98 98 E 12 19 30.37 1029 2 3.21868 0 0
11:55 pm 23:55 Cloudy with Light Snow 31 -0.5 30 -1 96 96 ESE 15 24 30.36 1028 1.75 2.816345 0 0

Powered by AerisWeather